FAB2009 SWUQ-SBTT

Flight info

Callsign FAB2009
Flight time 2h 0m
Altitude 20000
Route DCT 0 32 3N 65 39 5 W DCT 1 56 38 S 67 52 1 W DCT RWY 30
Aircraft C97/L-SDE3/C

Departure

Time 2026-04-24 14:26
Airport Surucucu Airport (SWUQ)

Arrival

Time 2026-04-24 16:26
Airport Tabatinga International Airport (SBTT)
Time Latitude Longitude Altitude Speed Heading
2026-04-24 14:21 2.83687 -63.65080 2860 ft 0 kts 202°
2026-04-24 14:24 2.83644 -63.65128 2860 ft 10 kts 296°
2026-04-24 14:24 2.83662 -63.65160 2860 ft 1 kts 226°
2026-04-24 14:25 2.83655 -63.65163 2860 ft 0 kts 165°
2026-04-24 14:25 2.83639 -63.65120 2860 ft 23 kts 102°
2026-04-24 14:25 2.83523 -63.64666 2860 ft 108 kts 108°
2026-04-24 14:25 2.83278 -63.63868 3245 ft 125 kts 107°
2026-04-24 14:26 2.83017 -63.63030 3666 ft 147 kts 105°
2026-04-24 14:26 2.82734 -63.61967 4107 ft 169 kts 104°
2026-04-24 14:26 2.82291 -63.60809 4503 ft 189 kts 123°
2026-04-24 14:26 2.81243 -63.59933 4906 ft 206 kts 155°
2026-04-24 14:27 2.79801 -63.59680 5300 ft 220 kts 185°
2026-04-24 14:27 2.78337 -63.60162 5698 ft 227 kts 214°
2026-04-24 14:27 2.77198 -63.61262 6111 ft 230 kts 235°
2026-04-24 14:27 2.76309 -63.62614 6503 ft 236 kts 242°
2026-04-24 14:28 2.75474 -63.64058 6888 ft 241 kts 242°
2026-04-24 14:28 2.74589 -63.65479 7261 ft 246 kts 239°
2026-04-24 14:28 2.73583 -63.66893 7641 ft 250 kts 236°
2026-04-24 14:28 2.72497 -63.68246 8016 ft 253 kts 232°
2026-04-24 14:29 2.71321 -63.69577 8394 ft 255 kts 230°
2026-04-24 14:29 2.70093 -63.70871 8771 ft 257 kts 229°
2026-04-24 14:29 2.68823 -63.72144 9148 ft 259 kts 227°
2026-04-24 14:29 2.67799 -63.73138 9446 ft 260 kts 227°
2026-04-24 14:30 2.66907 -63.73987 9702 ft 261 kts 226°
2026-04-24 14:30 2.65134 -63.75642 10202 ft 262 kts 226°
2026-04-24 14:30 2.63799 -63.76870 10575 ft 263 kts 226°
2026-04-24 14:30 2.62435 -63.78114 10953 ft 265 kts 225°
2026-04-24 14:31 2.61080 -63.79343 11325 ft 266 kts 225°
2026-04-24 14:31 2.59701 -63.80589 11703 ft 267 kts 225°
2026-04-24 14:31 2.58314 -63.81839 12080 ft 268 kts 225°
2026-04-24 14:31 2.56938 -63.83075 12453 ft 269 kts 225°
2026-04-24 14:32 2.55539 -63.84332 12830 ft 270 kts 225°
2026-04-24 14:32 2.54135 -63.85592 13208 ft 271 kts 225°
2026-04-24 14:32 2.52727 -63.86856 13585 ft 272 kts 225°
2026-04-24 14:32 2.51330 -63.88108 13957 ft 273 kts 225°
2026-04-24 14:33 2.49910 -63.89381 14334 ft 274 kts 225°
2026-04-24 14:33 2.48487 -63.90656 14711 ft 275 kts 225°
2026-04-24 14:33 2.47072 -63.91925 15084 ft 276 kts 225°
2026-04-24 14:33 2.45638 -63.93210 15460 ft 276 kts 225°
2026-04-24 14:34 2.44204 -63.94494 15836 ft 276 kts 225°
2026-04-24 14:34 2.42783 -63.95767 16208 ft 276 kts 225°
2026-04-24 14:34 2.41343 -63.97056 16585 ft 276 kts 225°
2026-04-24 14:34 2.39906 -63.98343 16961 ft 276 kts 225°
2026-04-24 14:35 2.38492 -63.99610 17332 ft 276 kts 225°
2026-04-24 14:35 2.37060 -64.00891 17708 ft 275 kts 225°
2026-04-24 14:35 2.35631 -64.02171 18084 ft 275 kts 225°
2026-04-24 14:35 2.34220 -64.03435 18455 ft 274 kts 225°
2026-04-24 14:36 2.32795 -64.04711 18831 ft 274 kts 225°
2026-04-24 14:36 2.31370 -64.05986 19207 ft 273 kts 225°
2026-04-24 14:36 2.29966 -64.07244 19579 ft 273 kts 225°
2026-04-24 14:36 2.28552 -64.08511 19955 ft 272 kts 225°
2026-04-24 14:37 2.27141 -64.09774 20330 ft 271 kts 225°
2026-04-24 14:37 2.25733 -64.11035 20705 ft 271 kts 225°
2026-04-24 14:37 2.24331 -64.12290 21079 ft 270 kts 225°
2026-04-24 14:37 2.22951 -64.13526 21449 ft 269 kts 225°
2026-04-24 14:38 2.21561 -64.14770 21823 ft 267 kts 225°
2026-04-24 14:38 2.20175 -64.16011 22199 ft 265 kts 225°
2026-04-24 14:38 2.18817 -64.17226 22569 ft 263 kts 225°
2026-04-24 14:38 2.17456 -64.18445 22943 ft 261 kts 225°
2026-04-24 14:39 2.16108 -64.19651 23316 ft 258 kts 226°
2026-04-24 14:39 2.14770 -64.20849 23689 ft 256 kts 226°
2026-04-24 14:39 2.13464 -64.22018 24057 ft 253 kts 226°
2026-04-24 14:39 2.12155 -64.23190 24430 ft 250 kts 226°
2026-04-24 14:40 2.10854 -64.24354 24804 ft 247 kts 226°
2026-04-24 14:40 2.09585 -64.25490 25174 ft 244 kts 226°
2026-04-24 14:40 2.08334 -64.26609 25542 ft 241 kts 226°
2026-04-24 14:40 2.07085 -64.27727 25915 ft 238 kts 226°
2026-04-24 14:41 2.05876 -64.28810 26281 ft 234 kts 226°
2026-04-24 14:41 2.04670 -64.29889 26652 ft 230 kts 226°
2026-04-24 14:41 2.03484 -64.30950 27022 ft 225 kts 226°
2026-04-24 14:41 2.02714 -64.31639 27266 ft 222 kts 226°
2026-04-24 14:42 2.01580 -64.32654 27631 ft 216 kts 226°
2026-04-24 14:42 2.00120 -64.33959 28115 ft 207 kts 226°
2026-04-24 14:42 1.99061 -64.34906 28474 ft 200 kts 226°
2026-04-24 14:42 1.98380 -64.35516 28670 ft 197 kts 227°
2026-04-24 14:43 1.96981 -64.36776 28631 ft 213 kts 227°
2026-04-24 14:43 1.95834 -64.37815 28391 ft 233 kts 226°
2026-04-24 14:43 1.95012 -64.38560 28174 ft 247 kts 226°
2026-04-24 14:43 1.93689 -64.39754 27824 ft 265 kts 226°
2026-04-24 14:44 1.92273 -64.41028 27460 ft 279 kts 225°
2026-04-24 14:44 1.90299 -64.42798 26972 ft 294 kts 225°
2026-04-24 14:44 1.89278 -64.43710 26727 ft 299 kts 225°
2026-04-24 14:44 1.87698 -64.45123 26353 ft 306 kts 225°
2026-04-24 14:45 1.86109 -64.46542 25984 ft 311 kts 225°
2026-04-24 14:45 1.84479 -64.47996 25610 ft 315 kts 225°
2026-04-24 14:45 1.82828 -64.49470 25235 ft 319 kts 225°
2026-04-24 14:45 1.81160 -64.50959 24860 ft 321 kts 225°
2026-04-24 14:46 1.79485 -64.52454 24485 ft 323 kts 225°
2026-04-24 14:46 1.77819 -64.53942 24115 ft 325 kts 225°
2026-04-24 14:46 1.76124 -64.55455 23740 ft 327 kts 225°
2026-04-24 14:46 1.74421 -64.56977 23364 ft 328 kts 225°
2026-04-24 14:47 1.72710 -64.58505 22988 ft 329 kts 225°
2026-04-24 14:47 1.71019 -64.60016 22618 ft 330 kts 225°
2026-04-24 14:47 1.69290 -64.61562 22240 ft 331 kts 225°
2026-04-24 14:47 1.67580 -64.63091 21868 ft 332 kts 225°
2026-04-24 14:48 1.65848 -64.64640 21492 ft 333 kts 225°
2026-04-24 14:48 1.64129 -64.66177 21119 ft 334 kts 225°
2026-04-24 14:48 1.62385 -64.67736 20743 ft 335 kts 225°
2026-04-24 14:48 1.60637 -64.69299 20366 ft 336 kts 225°
2026-04-24 14:49 1.58921 -64.70833 20139 ft 332 kts 225°
2026-04-24 14:49 1.57199 -64.72370 20032 ft 327 kts 225°
2026-04-24 14:49 1.55530 -64.73860 19999 ft 321 kts 225°
2026-04-24 14:49 1.53866 -64.75346 19997 ft 317 kts 225°
2026-04-24 14:50 1.52220 -64.76816 19998 ft 314 kts 225°
2026-04-24 14:50 1.50612 -64.78253 19999 ft 312 kts 225°
2026-04-24 14:50 1.48988 -64.79706 19999 ft 311 kts 225°
2026-04-24 14:50 1.47375 -64.81150 20000 ft 310 kts 225°
2026-04-24 14:51 1.45786 -64.82572 20000 ft 309 kts 225°
2026-04-24 14:51 1.44178 -64.84012 20000 ft 309 kts 225°
2026-04-24 14:51 1.42573 -64.85449 20000 ft 309 kts 225°
2026-04-24 14:51 1.40986 -64.86869 20000 ft 309 kts 225°
2026-04-24 14:52 1.39379 -64.88307 20000 ft 308 kts 225°
2026-04-24 14:52 1.37788 -64.89730 20000 ft 308 kts 225°
2026-04-24 14:52 1.36181 -64.91168 20000 ft 308 kts 225°
2026-04-24 14:52 1.34582 -64.92599 20000 ft 308 kts 225°
2026-04-24 14:53 1.32979 -64.94033 20000 ft 308 kts 225°
2026-04-24 14:53 1.31395 -64.95449 20000 ft 308 kts 225°
2026-04-24 14:53 1.29792 -64.96883 20000 ft 308 kts 225°
2026-04-24 14:53 1.28190 -64.98316 20000 ft 308 kts 225°
2026-04-24 14:54 1.26590 -64.99747 20000 ft 308 kts 225°
2026-04-24 14:54 1.24989 -65.01178 20000 ft 308 kts 225°
2026-04-24 14:54 1.23403 -65.02596 20000 ft 308 kts 225°
2026-04-24 14:54 1.21805 -65.04025 20000 ft 308 kts 225°
2026-04-24 14:55 1.20741 -65.04977 20000 ft 308 kts 225°
2026-04-24 14:55 1.18610 -65.06882 20000 ft 308 kts 225°
2026-04-24 14:55 1.17004 -65.08318 20000 ft 308 kts 225°
2026-04-24 14:55 1.15400 -65.09752 20000 ft 308 kts 225°
2026-04-24 14:56 1.13798 -65.11185 20000 ft 308 kts 225°
2026-04-24 14:56 1.12213 -65.12602 20000 ft 308 kts 225°
2026-04-24 14:56 1.10609 -65.14036 20000 ft 308 kts 225°
2026-04-24 14:56 1.09022 -65.15455 20000 ft 308 kts 225°
2026-04-24 14:57 1.07416 -65.16890 20000 ft 308 kts 225°
2026-04-24 14:57 1.05811 -65.18326 20000 ft 308 kts 225°
2026-04-24 14:57 1.04226 -65.19742 20000 ft 308 kts 225°
2026-04-24 14:57 1.02616 -65.21182 20000 ft 308 kts 225°
2026-04-24 14:58 1.01010 -65.22618 20000 ft 308 kts 225°
2026-04-24 14:58 0.99424 -65.24036 20000 ft 308 kts 225°
2026-04-24 14:58 0.97813 -65.25476 20000 ft 308 kts 225°
2026-04-24 14:58 0.96229 -65.26892 20000 ft 308 kts 225°
2026-04-24 14:59 0.94624 -65.28326 20000 ft 308 kts 225°
2026-04-24 14:59 0.93021 -65.29760 20000 ft 308 kts 225°
2026-04-24 14:59 0.91440 -65.31173 20000 ft 308 kts 225°
2026-04-24 14:59 0.89831 -65.32612 20000 ft 308 kts 225°
2026-04-24 15:00 0.88245 -65.34029 20000 ft 308 kts 225°
2026-04-24 15:00 0.86638 -65.35465 20000 ft 308 kts 225°
2026-04-24 15:00 0.85031 -65.36902 20000 ft 308 kts 225°
2026-04-24 15:00 0.83450 -65.38315 20000 ft 308 kts 225°
2026-04-24 15:01 0.81847 -65.39748 20000 ft 308 kts 225°
2026-04-24 15:01 0.80243 -65.41182 20000 ft 308 kts 225°
2026-04-24 15:01 0.78653 -65.42603 20000 ft 308 kts 225°
2026-04-24 15:01 0.77045 -65.44041 20000 ft 309 kts 225°
2026-04-24 15:02 0.75435 -65.45479 20000 ft 309 kts 225°
2026-04-24 15:02 0.73851 -65.46896 20000 ft 309 kts 225°
2026-04-24 15:02 0.72241 -65.48335 20000 ft 309 kts 225°
2026-04-24 15:02 0.70656 -65.49752 20000 ft 309 kts 225°
2026-04-24 15:03 0.69045 -65.51191 20000 ft 309 kts 225°
2026-04-24 15:03 0.67439 -65.52627 20000 ft 309 kts 225°
2026-04-24 15:03 0.65850 -65.54047 20000 ft 309 kts 225°
2026-04-24 15:03 0.64244 -65.55483 20000 ft 309 kts 225°
2026-04-24 15:04 0.62654 -65.56905 20000 ft 309 kts 225°
2026-04-24 15:04 0.61045 -65.58343 20000 ft 309 kts 225°
2026-04-24 15:04 0.59441 -65.59777 20000 ft 309 kts 225°
2026-04-24 15:04 0.57858 -65.61192 20000 ft 309 kts 225°
2026-04-24 15:05 0.56246 -65.62634 20000 ft 309 kts 225°
2026-04-24 15:05 0.54642 -65.64067 20000 ft 309 kts 225°
2026-04-24 15:05 0.53052 -65.65487 20000 ft 309 kts 225°
2026-04-24 15:05 0.51453 -65.66916 20000 ft 309 kts 225°
2026-04-24 15:06 0.49859 -65.68339 20000 ft 309 kts 225°
2026-04-24 15:06 0.48249 -65.69777 20000 ft 309 kts 225°
2026-04-24 15:06 0.46646 -65.71209 20000 ft 309 kts 225°
2026-04-24 15:06 0.45056 -65.72629 20000 ft 309 kts 225°
2026-04-24 15:07 0.43445 -65.74069 20000 ft 309 kts 225°
2026-04-24 15:07 0.41857 -65.75488 20000 ft 309 kts 225°
2026-04-24 15:07 0.40251 -65.76923 20000 ft 309 kts 225°
2026-04-24 15:07 0.38647 -65.78355 20000 ft 309 kts 225°
2026-04-24 15:08 0.37036 -65.79795 20000 ft 309 kts 225°
2026-04-24 15:08 0.35449 -65.81213 20000 ft 309 kts 225°
2026-04-24 15:08 0.33841 -65.82650 20000 ft 309 kts 225°
2026-04-24 15:08 0.32254 -65.84069 20000 ft 309 kts 225°
2026-04-24 15:09 0.30646 -65.85505 20000 ft 309 kts 225°
2026-04-24 15:09 0.29075 -65.86910 20000 ft 309 kts 225°
2026-04-24 15:09 0.27468 -65.88346 20000 ft 309 kts 225°
2026-04-24 15:09 0.25860 -65.89783 20000 ft 309 kts 225°
2026-04-24 15:10 0.24256 -65.91216 20000 ft 309 kts 225°
2026-04-24 15:10 0.22674 -65.92630 20000 ft 309 kts 225°
2026-04-24 15:10 0.21068 -65.94065 20000 ft 309 kts 225°
2026-04-24 15:10 0.19457 -65.95504 20000 ft 309 kts 225°
2026-04-24 15:11 0.17852 -65.96939 20000 ft 309 kts 225°
2026-04-24 15:11 0.16274 -65.98349 20000 ft 309 kts 225°
2026-04-24 15:11 0.14666 -65.99786 20000 ft 309 kts 225°
2026-04-24 15:11 0.13058 -66.01223 20000 ft 309 kts 225°
2026-04-24 15:12 0.11468 -66.02643 20000 ft 309 kts 225°
2026-04-24 15:12 0.08256 -66.05514 20000 ft 309 kts 225°
2026-04-24 15:12 0.06670 -66.06931 20000 ft 309 kts 225°
2026-04-24 15:13 0.05061 -66.08370 20000 ft 309 kts 225°
2026-04-24 15:13 0.03473 -66.09788 20000 ft 309 kts 225°
2026-04-24 15:13 0.01866 -66.11224 20000 ft 309 kts 225°
2026-04-24 15:13 0.00259 -66.12660 20000 ft 309 kts 225°
2026-04-24 15:14 -0.01332 -66.14082 20000 ft 309 kts 225°
2026-04-24 15:14 -0.02938 -66.15517 20000 ft 309 kts 225°
2026-04-24 15:14 -0.04546 -66.16954 20000 ft 309 kts 225°
2026-04-24 15:14 -0.06133 -66.18372 20000 ft 309 kts 225°
2026-04-24 15:15 -0.07738 -66.19807 20000 ft 309 kts 225°
2026-04-24 15:15 -0.09338 -66.21237 20000 ft 309 kts 225°
2026-04-24 15:15 -0.10946 -66.22673 20000 ft 309 kts 225°
2026-04-24 15:15 -0.12534 -66.24093 20000 ft 309 kts 225°
2026-04-24 15:16 -0.14138 -66.25526 20000 ft 309 kts 225°
2026-04-24 15:16 -0.15748 -66.26965 20000 ft 309 kts 225°
2026-04-24 15:16 -0.17333 -66.28381 20000 ft 309 kts 225°
2026-04-24 15:16 -0.18940 -66.29817 20000 ft 309 kts 225°
2026-04-24 15:17 -0.20549 -66.31255 20000 ft 309 kts 225°
2026-04-24 15:17 -0.22136 -66.32673 20000 ft 309 kts 225°
2026-04-24 15:17 -0.23743 -66.34109 20000 ft 309 kts 225°
2026-04-24 15:17 -0.25351 -66.35546 20000 ft 309 kts 225°
2026-04-24 15:18 -0.26940 -66.36966 20000 ft 309 kts 225°
2026-04-24 15:18 -0.28552 -66.38407 20000 ft 309 kts 225°
2026-04-24 15:18 -0.30141 -66.39827 20000 ft 309 kts 225°
2026-04-24 15:18 -0.31747 -66.41262 20000 ft 309 kts 225°
2026-04-24 15:19 -0.33354 -66.42699 20000 ft 309 kts 225°
2026-04-24 15:19 -0.34959 -66.44132 20000 ft 309 kts 225°
2026-04-24 15:19 -0.36548 -66.45553 20000 ft 309 kts 225°
2026-04-24 15:19 -0.38153 -66.46987 20000 ft 309 kts 225°
2026-04-24 15:20 -0.39743 -66.48408 20000 ft 309 kts 225°
2026-04-24 15:20 -0.41350 -66.49844 20000 ft 309 kts 225°
2026-04-24 15:20 -0.42957 -66.51280 20000 ft 309 kts 225°
2026-04-24 15:20 -0.44565 -66.52717 20000 ft 309 kts 225°
2026-04-24 15:21 -0.46174 -66.54155 20000 ft 309 kts 225°
2026-04-24 15:21 -0.47759 -66.55572 20000 ft 309 kts 225°
2026-04-24 15:21 -0.49367 -66.57009 20000 ft 309 kts 225°
2026-04-24 15:21 -0.50973 -66.58444 20000 ft 309 kts 225°
2026-04-24 15:22 -0.52562 -66.59865 20000 ft 309 kts 225°
2026-04-24 15:22 -0.54172 -66.61303 20000 ft 309 kts 225°
2026-04-24 15:22 -0.55783 -66.62743 20000 ft 309 kts 225°
2026-04-24 15:23 -0.58980 -66.65600 20000 ft 309 kts 225°
2026-04-24 15:23 -0.62176 -66.68457 20000 ft 309 kts 225°
2026-04-24 15:23 -0.63786 -66.69896 20000 ft 309 kts 225°
2026-04-24 15:24 -0.68593 -66.74192 20000 ft 309 kts 225°
2026-04-24 15:25 -0.71248 -66.76566 20000 ft 309 kts 225°
2026-04-24 15:25 -0.75003 -66.79921 20000 ft 309 kts 225°
2026-04-24 15:26 -0.79801 -66.84211 20000 ft 309 kts 225°
2026-04-24 15:27 -0.84067 -66.88024 20000 ft 309 kts 225°
2026-04-24 15:27 -0.89408 -66.92798 20000 ft 309 kts 225°
2026-04-24 15:28 -0.95296 -66.98062 20000 ft 309 kts 225°
2026-04-24 15:29 -0.98489 -67.00916 20000 ft 309 kts 225°
2026-04-24 15:30 -1.03290 -67.05209 20000 ft 309 kts 225°
2026-04-24 15:31 -1.09702 -67.10941 20000 ft 309 kts 225°
2026-04-24 15:32 -1.16106 -67.16667 20000 ft 309 kts 225°
2026-04-24 15:33 -1.22506 -67.22390 20000 ft 309 kts 225°
2026-04-24 15:33 -1.27342 -67.26714 20000 ft 309 kts 225°
2026-04-24 15:34 -1.30538 -67.29573 20000 ft 309 kts 225°
2026-04-24 15:35 -1.35354 -67.33880 20000 ft 309 kts 225°
2026-04-24 15:35 -1.38554 -67.36741 20000 ft 309 kts 225°
2026-04-24 15:35 -1.40163 -67.38180 20000 ft 309 kts 225°
2026-04-24 15:36 -1.41753 -67.39602 20000 ft 309 kts 225°
2026-04-24 15:36 -1.44969 -67.42479 20000 ft 309 kts 225°
2026-04-24 15:36 -1.46577 -67.43917 20000 ft 309 kts 225°
2026-04-24 15:37 -1.48168 -67.45341 20000 ft 309 kts 225°
2026-04-24 15:37 -1.49787 -67.46789 20000 ft 309 kts 225°
2026-04-24 15:37 -1.51394 -67.48226 20000 ft 309 kts 225°
2026-04-24 15:37 -1.52982 -67.49647 20000 ft 309 kts 225°
2026-04-24 15:38 -1.54591 -67.51086 20000 ft 309 kts 225°
2026-04-24 15:38 -1.56200 -67.52525 20000 ft 309 kts 225°
2026-04-24 15:38 -1.57794 -67.53952 20000 ft 309 kts 225°
2026-04-24 15:38 -1.59405 -67.55393 20000 ft 309 kts 225°
2026-04-24 15:39 -1.61000 -67.56820 20000 ft 309 kts 225°
2026-04-24 15:39 -1.62611 -67.58261 20000 ft 309 kts 225°
2026-04-24 15:39 -1.64215 -67.59696 20000 ft 309 kts 225°
2026-04-24 15:39 -1.65805 -67.61119 20000 ft 309 kts 225°
2026-04-24 15:40 -1.67417 -67.62561 20000 ft 309 kts 225°
2026-04-24 15:40 -1.69025 -67.64000 20000 ft 309 kts 225°
2026-04-24 15:40 -1.70618 -67.65425 20000 ft 309 kts 225°
2026-04-24 15:40 -1.72222 -67.66861 20000 ft 309 kts 225°
2026-04-24 15:41 -1.73832 -67.68301 20000 ft 309 kts 225°
2026-04-24 15:41 -1.75415 -67.69717 20000 ft 309 kts 225°
2026-04-24 15:41 -1.77027 -67.71161 20000 ft 309 kts 225°
2026-04-24 15:41 -1.78637 -67.72601 20000 ft 309 kts 225°
2026-04-24 15:42 -1.80245 -67.74040 20000 ft 309 kts 225°
2026-04-24 15:42 -1.81836 -67.75464 20000 ft 309 kts 225°
2026-04-24 15:42 -1.83444 -67.76904 20000 ft 309 kts 225°
2026-04-24 15:42 -1.85056 -67.78347 20000 ft 309 kts 225°
2026-04-24 15:43 -1.86645 -67.79769 20000 ft 309 kts 225°
2026-04-24 15:43 -1.88255 -67.81211 20000 ft 309 kts 225°
2026-04-24 15:43 -1.89864 -67.82652 20000 ft 309 kts 225°
2026-04-24 15:43 -1.91472 -67.84085 20000 ft 310 kts 224°
2026-04-24 15:44 -1.93115 -67.85491 20000 ft 310 kts 223°
2026-04-24 15:44 -1.94763 -67.86857 20000 ft 310 kts 223°
2026-04-24 15:44 -1.96451 -67.88227 20000 ft 310 kts 222°
2026-04-24 15:44 -1.98112 -67.89559 20000 ft 311 kts 222°
2026-04-24 15:45 -1.99813 -67.90912 20000 ft 311 kts 222°
2026-04-24 15:45 -2.01509 -67.92254 20000 ft 311 kts 221°
2026-04-24 15:45 -2.03217 -67.93601 20000 ft 311 kts 221°
2026-04-24 15:45 -2.04897 -67.94924 20000 ft 311 kts 221°
2026-04-24 15:46 -2.06606 -67.96268 20000 ft 311 kts 221°
2026-04-24 15:46 -2.08306 -67.97604 20000 ft 311 kts 221°
2026-04-24 15:46 -2.10013 -67.98945 20000 ft 311 kts 221°
2026-04-24 15:46 -2.11698 -68.00268 20000 ft 311 kts 221°
2026-04-24 15:47 -2.13407 -68.01609 20000 ft 311 kts 221°
2026-04-24 15:47 -2.15094 -68.02932 20000 ft 311 kts 221°
2026-04-24 15:47 -2.16803 -68.04273 20000 ft 311 kts 221°
2026-04-24 15:47 -2.18510 -68.05612 20000 ft 311 kts 221°
2026-04-24 15:48 -2.20195 -68.06934 20000 ft 311 kts 221°
2026-04-24 15:48 -2.21902 -68.08273 20000 ft 311 kts 221°
2026-04-24 15:48 -2.23610 -68.09613 20000 ft 311 kts 221°
2026-04-24 15:48 -2.25317 -68.10953 20000 ft 311 kts 221°
2026-04-24 15:49 -2.27008 -68.12279 20000 ft 311 kts 221°
2026-04-24 15:49 -2.28714 -68.13617 20000 ft 311 kts 221°
2026-04-24 15:49 -2.30403 -68.14942 20000 ft 311 kts 221°
2026-04-24 15:49 -2.32107 -68.16279 20000 ft 311 kts 221°
2026-04-24 15:50 -2.33815 -68.17619 20000 ft 311 kts 221°
2026-04-24 15:50 -2.35502 -68.18943 20000 ft 311 kts 221°
2026-04-24 15:50 -2.37215 -68.20286 20000 ft 311 kts 221°
2026-04-24 15:50 -2.38903 -68.21611 20000 ft 311 kts 221°
2026-04-24 15:51 -2.40612 -68.22952 20000 ft 311 kts 221°
2026-04-24 15:51 -2.42302 -68.24278 20000 ft 311 kts 221°
2026-04-24 15:51 -2.44028 -68.25632 20000 ft 311 kts 221°
2026-04-24 15:51 -2.45714 -68.26956 20000 ft 311 kts 221°
2026-04-24 15:52 -2.47427 -68.28300 20000 ft 311 kts 221°
2026-04-24 15:52 -2.49118 -68.29627 20000 ft 311 kts 221°
2026-04-24 15:52 -2.50821 -68.30964 20000 ft 311 kts 221°
2026-04-24 15:52 -2.52530 -68.32304 20000 ft 311 kts 221°
2026-04-24 15:53 -2.54215 -68.33627 20000 ft 311 kts 221°
2026-04-24 15:53 -2.55918 -68.34964 20000 ft 311 kts 221°
2026-04-24 15:53 -2.57628 -68.36306 20000 ft 311 kts 221°
2026-04-24 15:53 -2.59318 -68.37632 20000 ft 311 kts 221°
2026-04-24 15:54 -2.61024 -68.38972 20000 ft 311 kts 221°
2026-04-24 15:54 -2.62733 -68.40313 20000 ft 311 kts 221°
2026-04-24 15:54 -2.64437 -68.41651 20000 ft 311 kts 221°
2026-04-24 15:54 -2.66122 -68.42974 20000 ft 311 kts 221°
2026-04-24 15:55 -2.67832 -68.44316 20000 ft 311 kts 221°
2026-04-24 15:55 -2.69537 -68.45655 20000 ft 311 kts 221°
2026-04-24 15:55 -2.71224 -68.46979 20000 ft 311 kts 221°
2026-04-24 15:55 -2.72928 -68.48317 20000 ft 311 kts 221°
2026-04-24 15:56 -2.74638 -68.49660 20000 ft 311 kts 221°
2026-04-24 15:56 -2.76330 -68.50988 20000 ft 311 kts 221°
2026-04-24 15:56 -2.78041 -68.52332 20000 ft 311 kts 221°
2026-04-24 15:56 -2.79751 -68.53675 20000 ft 311 kts 221°
2026-04-24 15:57 -2.81437 -68.54999 20000 ft 311 kts 221°
2026-04-24 15:57 -2.83145 -68.56340 20000 ft 311 kts 221°
2026-04-24 15:57 -2.84274 -68.57227 20000 ft 311 kts 221°
2026-04-24 15:57 -2.86552 -68.59016 20000 ft 311 kts 221°
2026-04-24 15:58 -2.88239 -68.60341 20000 ft 311 kts 221°
2026-04-24 15:58 -2.89949 -68.61684 20000 ft 311 kts 221°
2026-04-24 15:58 -2.91655 -68.63024 20000 ft 311 kts 221°
2026-04-24 15:58 -2.93346 -68.64353 20000 ft 311 kts 221°
2026-04-24 15:59 -2.95050 -68.65691 20000 ft 311 kts 221°
2026-04-24 15:59 -2.96760 -68.67035 20000 ft 311 kts 221°
2026-04-24 15:59 -2.98463 -68.68373 20000 ft 311 kts 221°
2026-04-24 15:59 -3.00149 -68.69697 20000 ft 311 kts 221°
2026-04-24 16:00 -3.01857 -68.71039 20000 ft 311 kts 221°
2026-04-24 16:00 -3.03562 -68.72378 20000 ft 311 kts 221°
2026-04-24 16:00 -3.05270 -68.73721 20000 ft 311 kts 221°
2026-04-24 16:00 -3.06948 -68.75039 19931 ft 308 kts 221°
2026-04-24 16:01 -3.08637 -68.76365 19657 ft 308 kts 221°
2026-04-24 16:01 -3.10326 -68.77692 19403 ft 307 kts 221°
2026-04-24 16:01 -3.11993 -68.79002 19155 ft 307 kts 221°
2026-04-24 16:01 -3.13678 -68.80327 18904 ft 307 kts 221°
2026-04-24 16:02 -3.15354 -68.81644 18654 ft 306 kts 221°
2026-04-24 16:02 -3.17024 -68.82957 18404 ft 306 kts 221°
2026-04-24 16:02 -3.18707 -68.84280 18153 ft 306 kts 221°
2026-04-24 16:02 -3.20382 -68.85597 17903 ft 306 kts 221°
2026-04-24 16:03 -3.22063 -68.86918 17652 ft 306 kts 221°
2026-04-24 16:03 -3.23740 -68.88237 17401 ft 306 kts 221°
2026-04-24 16:03 -3.25393 -68.89537 17154 ft 306 kts 221°
2026-04-24 16:03 -3.27069 -68.90854 16904 ft 305 kts 221°
2026-04-24 16:04 -3.28728 -68.92157 16651 ft 299 kts 221°
2026-04-24 16:04 -3.30343 -68.93425 16402 ft 296 kts 221°
2026-04-24 16:04 -3.31967 -68.94701 16150 ft 294 kts 221°
2026-04-24 16:04 -3.33580 -68.95969 15898 ft 293 kts 221°
2026-04-24 16:05 -3.36770 -68.98479 15399 ft 292 kts 221°
2026-04-24 16:05 -3.38357 -68.99727 15150 ft 291 kts 221°
2026-04-24 16:06 -3.41556 -69.02245 14647 ft 291 kts 221°
2026-04-24 16:06 -3.43125 -69.03480 14400 ft 290 kts 221°
2026-04-24 16:06 -3.46305 -69.05982 13898 ft 289 kts 221°
2026-04-24 16:07 -3.47886 -69.07225 13647 ft 288 kts 221°
2026-04-24 16:07 -3.49466 -69.08468 13396 ft 288 kts 221°
2026-04-24 16:07 -3.52607 -69.10939 12895 ft 286 kts 221°
2026-04-24 16:08 -3.54151 -69.12155 12648 ft 285 kts 221°
2026-04-24 16:08 -3.57260 -69.14601 12148 ft 284 kts 221°
2026-04-24 16:09 -3.60356 -69.17037 11648 ft 283 kts 221°
2026-04-24 16:09 -3.61905 -69.18255 11397 ft 282 kts 221°
2026-04-24 16:09 -3.62932 -69.19064 11231 ft 281 kts 221°
2026-04-24 16:09 -3.64995 -69.20688 10895 ft 281 kts 221°
2026-04-24 16:10 -3.69066 -69.23892 10229 ft 279 kts 221°
2026-04-24 16:11 -3.72098 -69.26279 9729 ft 277 kts 221°
2026-04-24 16:11 -3.73618 -69.27475 9516 ft 276 kts 221°
2026-04-24 16:11 -3.75110 -69.28650 9317 ft 274 kts 221°
2026-04-24 16:12 -3.78106 -69.31008 8914 ft 271 kts 221°
2026-04-24 16:12 -3.79576 -69.32165 8714 ft 269 kts 221°
2026-04-24 16:12 -3.82506 -69.34472 8313 ft 267 kts 221°
2026-04-24 16:13 -3.83946 -69.35606 8115 ft 266 kts 221°
2026-04-24 16:13 -3.86861 -69.37902 7712 ft 264 kts 221°
2026-04-24 16:14 -3.89737 -69.40168 7313 ft 263 kts 221°
2026-04-24 16:14 -3.91181 -69.41306 7112 ft 263 kts 221°
2026-04-24 16:14 -3.94048 -69.43564 6710 ft 260 kts 221°
2026-04-24 16:15 -3.94992 -69.44307 6576 ft 259 kts 221°
2026-04-24 16:15 -3.98282 -69.46899 6107 ft 257 kts 221°
2026-04-24 16:16 -4.01097 -69.49119 5706 ft 258 kts 221°
2026-04-24 16:16 -4.02495 -69.50223 5507 ft 259 kts 221°
2026-04-24 16:17 -4.06758 -69.53588 4905 ft 260 kts 220°
2026-04-24 16:17 -4.09583 -69.55817 4507 ft 260 kts 219°
2026-04-24 16:18 -4.12436 -69.58067 4105 ft 259 kts 219°
2026-04-24 16:18 -4.15260 -69.60292 3705 ft 258 kts 218°
2026-04-24 16:18 -4.16664 -69.61399 3505 ft 256 kts 218°
2026-04-24 16:19 -4.19461 -69.63600 3139 ft 253 kts 218°
2026-04-24 16:19 -4.20826 -69.64674 3037 ft 249 kts 218°
2026-04-24 16:20 -4.23483 -69.66766 3000 ft 240 kts 218°
2026-04-24 16:20 -4.26087 -69.68826 2999 ft 235 kts 219°
2026-04-24 16:20 -4.27338 -69.69877 2839 ft 241 kts 221°
2026-04-24 16:21 -4.29849 -69.72188 2383 ft 247 kts 224°
2026-04-24 16:21 -4.31072 -69.73382 2140 ft 247 kts 224°
2026-04-24 16:21 -4.32249 -69.74623 1988 ft 240 kts 232°
2026-04-24 16:22 -4.32902 -69.76093 1916 ft 226 kts 258°
2026-04-24 16:22 -4.32509 -69.78888 1892 ft 178 kts 291°
2026-04-24 16:22 -4.32002 -69.80005 1894 ft 173 kts 296°
2026-04-24 16:23 -4.31473 -69.81050 1894 ft 167 kts 297°
2026-04-24 16:23 -4.30952 -69.82082 1922 ft 166 kts 296°
2026-04-24 16:23 -4.30431 -69.83148 1832 ft 175 kts 296°
2026-04-24 16:24 -4.29392 -69.85370 1483 ft 174 kts 295°
2026-04-24 16:24 -4.28893 -69.86464 1306 ft 170 kts 294°
2026-04-24 16:24 -4.28411 -69.87519 1163 ft 165 kts 295°
2026-04-24 16:24 -4.27933 -69.88555 1051 ft 158 kts 295°
2026-04-24 16:25 -4.27479 -69.89533 1077 ft 161 kts 295°
2026-04-24 16:25 -4.27008 -69.90546 978 ft 154 kts 295°
2026-04-24 16:25 -4.26588 -69.91449 714 ft 131 kts 295°
2026-04-24 16:26 -4.25902 -69.92901 285 ft 99 kts 292°
2026-04-24 16:26 -4.25744 -69.93245 285 ft 28 kts 294°
2026-04-24 16:26 -4.25644 -69.93465 285 ft 13 kts 295°
2026-04-24 16:27 -4.25598 -69.93564 285 ft 14 kts 295°
2026-04-24 16:27 -4.25553 -69.93661 285 ft 15 kts 295°
2026-04-24 16:27 -4.25508 -69.93757 285 ft 15 kts 295°
2026-04-24 16:27 -4.25459 -69.93850 285 ft 16 kts 296°
2026-04-24 16:28 -4.25414 -69.93946 285 ft 16 kts 295°
2026-04-24 16:28 -4.25354 -69.93989 285 ft 15 kts 21°
2026-04-24 16:28 -4.25191 -69.93922 285 ft 4 kts 337°
2026-04-24 16:29 -4.25180 -69.93931 285 ft 0 kts 301°